Snowfall_Accumulation
0.0 0.0 0.0 0.0 0.0 0.0 0.0 0.1 0.3 0.3 0.0 0.0 0.0 0.0 0.0 0.0 0.0 0.0 0.0 0.0 0.0 0.0 0.0 0.0 0.0 0.0 0.0 0.0 0.0 0.0 0.0 0.0 0.0 0.0 0.0 0.0 0.0 0.0
0.0 0.0 0.0 0.0 0.0 0.0 0.0 0.0 0.0 0.3 0.5 0.0 0.0 0.0 0.0 0.0 0.0 0.0 0.0 0.0 0.0 0.0 0.0 0.0 0.0 0.0 0.0 0.0 0.0 0.0 0.0 0.0 0.0 0.0 0.0 0.0 0.0 0.0
0.0 0.0 0.0 0.0 0.0 0.0 0.0 0.0 0.0 0.0 0.3 0.0 0.0 0.0 0.0 0.0 0.0 0.0 0.0 0.0 0.0 0.0 0.0 0.0 0.0 0.0 0.0 0.0 0.0 0.0 0.0 0.0 0.0 0.0 0.0 0.0 0.0 0.0
0.0 0.0 0.0 0.0 0.0 0.0 0.0 0.0 0.0 0.0 0.1 0.1 0.0 0.0 0.0 0.0 0.0 0.0 0.0 0.0 0.0 0.0 0.0 0.0 0.0 0.0 0.0 0.0 0.0 0.0 0.0 0.0 0.0 0.0 0.0 0.0 0.0 0.0
0.0 0.0 0.0 0.0 0.0 0.0 0.0 0.0 0.0 0.0 0.0 0.1 0.1 0.0 0.0 0.0 0.0 0.0 0.0 0.0 0.0 0.0 0.0 0.0 0.0 0.0 0.0 0.0 0.0 0.0 0.0 0.0 0.0 0.0 0.0 0.0 0.0 0.0
0.0 0.0 0.0 0.0 0.0 0.0 0.0 0.0 0.0 0.0 0.0 0.1 0.0 0.1 0.0 0.0 0.0 0.0 0.0 0.0 0.0 0.0 0.0 0.0 0.0 0.0 0.0 0.0 0.0 0.0 0.0 0.0 0.0 0.0 0.0 0.0 0.0 0.0
0.0 0.0 0.0 0.1 0.2 0.4 1.1 1.1 1.4 1.4 0.4 0.5 0.3 0.3 0.4 0.2 0.1 0.0 0.0 0.0 0.0 0.0 0.0 0.0 0.0 0.0 0.0 0.0 0.0 0.0 0.0 0.0 0.0 0.0 0.0 0.0 0.0 0.0
0.5 0.2 0.1 0.0 0.0 0.1 0.0 0.1 0.3 1.1 2.0 1.5 1.1 0.8 0.3 0.3 0.2 0.1 0.0 0.0 0.1 0.0 0.0 0.0 0.0 0.0 0.0 0.0 0.0 0.0 0.0 0.0 0.0 0.0 0.0 0.0 0.0 0.0
0.4 0.2 0.2 0.0 0.1 0.0 0.0 0.0 0.0 0.0 0.1 0.6 1.3 0.7 0.2 0.0 0.0 0.0 0.0 0.0 0.0 0.0 0.0 0.0 0.0 0.0 0.0 0.0 0.0 0.0 0.0 0.0 0.0 0.0 0.0 0.0 0.0 0.0
0.1 0.0 0.0 0.0 0.0 0.1 0.1 0.1 0.0 0.0 0.0 0.0 0.0 0.0 0.0 0.0 0.0 0.0 0.0 0.0 0.0 0.0 0.0 0.0 0.0 0.0 0.0 0.0 0.0 0.0 0.0 0.0 0.0 0.0 0.0 0.0 0.0 0.0
0.0 0.0 0.1 0.1 0.1 0.2 0.2 1.2 1.0 0.2 0.1 0.1 0.2 0.1 0.1 0.1 0.2 1.2 3.0 2.9 1.6 0.1 0.1 0.3 0.1 0.1 0.0 0.0 0.0 0.0 0.0 0.0 0.0 0.0 0.0 0.0 0.0 0.0
0.2 0.0 0.1 0.2 0.1 0.2 0.3 1.3 1.8 0.3 0.1 0.0 0.0 0.0 0.0 0.0 0.0 0.1 0.4 1.4 0.7 0.1 0.0 0.0 0.0 0.0 0.2 0.0 0.0 0.0 0.0 0.0 0.0 0.0 0.0 0.0 0.0 0.0
0.9 0.3 0.2 0.2 0.1 0.0 0.2 0.4 1.1 0.0 0.3 1.5 1.8 1.2 0.3 0.0 0.0 0.0 0.0 0.1 0.2 0.1 0.0 0.0 0.0 0.1 0.1 0.1 0.0 0.0 0.0 0.0 0.1 0.0 0.0 0.0 0.0 0.0
2.0 0.4 0.1 0.1 0.3 0.5 0.6 1.0 1.0 0.9 0.7 1.0 0.8 0.4 0.1 0.2 0.1 0.0 0.0 0.1 0.0 0.1 0.0 0.0 0.2 0.2 0.3 1.6 0.1 0.1 0.0 0.0 0.2 0.4 0.0 0.0 0.0 0.0
0.7 0.6 0.3 0.5 0.5 0.6 0.0 0.2 0.3 0.2 0.3 0.8 0.4 0.1 0.0 0.0 0.1 0.1 0.1 0.1 0.2 0.1 0.0 0.1 0.3 0.5 1.0 2.1 0.6 0.2 0.1 0.3 0.2 0.6 0.4 0.5 0.0 0.0
0.2 0.5 1.0 1.1 0.6 0.5 0.3 0.0 0.0 0.0 0.0 0.2 0.1 0.0 0.0 0.0 0.0 0.0 0.1 0.1 0.3 0.0 0.0 0.0 0.1 0.3 0.5 0.6 0.4 0.4 0.1 0.7 0.0 0.0 0.5 0.0 0.0 0.0
3.5 3.8 1.4 0.7 0.2 0.2 0.1 0.0 0.0 0.0 0.1 0.0 0.0 0.0 0.0 0.0 0.0 0.1 0.2 0.3 0.7 0.0 0.0 0.0 0.0 0.0 0.0 0.1 0.3 0.2 0.1 0.1 0.2 0.0 0.8 1.4 1.0 0.7
5.7 3.3 1.1 0.3 0.1 0.0 0.1 0.1 0.0 0.0 0.0 0.0 0.0 0.1 0.1 0.1 0.0 0.1 0.3 0.7 0.6 0.0 0.0 0.0 0.0 0.3 0.5 0.3 0.1 0.1 0.1 0.0 0.0 0.0 0.6 1.8 1.3 0.4
5.1 2.2 1.5 0.9 0.8 0.5 0.3 0.3 0.3 0.1 0.0 0.2 0.2 0.1 0.1 0.1 0.1 0.4 0.5 0.7 0.7 0.1 0.0 0.0 0.1 0.7 1.7 1.3 0.0 0.0 0.0 0.0 0.1 0.1 0.2 0.9 1.4 0.5
4.2 5.1 4.2 3.1 2.0 1.7 1.3 1.1 0.9 0.5 0.6 0.3 0.2 0.1 0.0 0.4 0.7 0.8 0.4 0.7 0.4 0.1 0.0 0.0 0.2 0.4 1.0 0.4 0.0 0.0 0.0 0.0 0.2 0.2 0.5 0.0 0.6 0.0
5.2 4.9 4.3 5.3 7.2 3.9 2.3 1.9 1.6 1.7 1.0 1.6 1.5 1.0 0.6 0.7 1.4 0.5 0.3 0.2 0.3 0.6 1.0 0.2 0.0 0.0 0.0 0.2 1.0 0.2 0.0 0.0 0.0 0.0 0.1 0.4 1.2 1.5
6.2 5.7 4.7 5.0 7.4 7.9 4.7 2.8 2.9 2.1 1.3 1.5 1.3 1.0 0.9 0.8 1.4 1.0 0.8 0.6 0.4 0.2 0.2 0.1 0.0 0.0 0.2 1.1 1.2 0.0 0.1 0.0 0.0 0.5 0.5 0.5 1.0 2.1
9.1 8.9 7.5 6.9 7.0 9.4 8.4 3.8 4.0 3.3 1.6 1.4 1.2 1.2 0.5 1.9 1.0 0.7 0.6 0.5 0.5 0.5 0.3 0.4 0.2 0.2 0.1 0.2 0.3 0.3 0.2 0.8 0.7 0.8 2.1 1.0 0.6 0.1